PGT9NK LTFJ-LTCG

Flight info

Callsign PGT9NK
Flight time 0h 52m
Altitude 35000
Route VICEN UT380 ASMAP UL333 LATGA UT363 ESB UT364 ILHAN UW71 TEMEL
Aircraft A321/M-SDE3FGHIRWY/LB1

Departure

Time 2026-05-03 22:16
Airport Istanbul Sabiha Gökçen International Airport (LTFJ)

Arrival

Time 2026-05-03 23:09
Airport Trabzon International Airport (LTCG)
Time Latitude Longitude Altitude Speed Heading
2026-05-03 21:51 40.90488 29.31773 321 ft 0 kts 153°
2026-05-03 21:55 40.90487 29.31773 321 ft 0 kts 153°
2026-05-03 21:55 40.90488 29.31773 321 ft 0 kts 153°
2026-05-03 22:03 40.90492 29.31770 321 ft 4 kts 155°
2026-05-03 22:04 40.90516 29.31756 320 ft 4 kts 161°
2026-05-03 22:04 40.90541 29.31749 319 ft 4 kts 184°
2026-05-03 22:04 40.90565 29.31758 320 ft 4 kts 226°
2026-05-03 22:04 40.90573 29.31772 320 ft 1 kts 244°
2026-05-03 22:05 40.90573 29.31774 320 ft 0 kts 244°
2026-05-03 22:08 40.90573 29.31772 321 ft 1 kts 244°
2026-05-03 22:08 40.90560 29.31738 319 ft 7 kts 244°
2026-05-03 22:09 40.90533 29.31663 321 ft 11 kts 244°
2026-05-03 22:09 40.90493 29.31556 320 ft 15 kts 244°
2026-05-03 22:09 40.90442 29.31419 321 ft 18 kts 244°
2026-05-03 22:10 40.90381 29.31446 321 ft 9 kts 133°
2026-05-03 22:10 40.90316 29.31497 321 ft 13 kts 159°
2026-05-03 22:10 40.90248 29.31428 321 ft 15 kts 249°
2026-05-03 22:10 40.90198 29.31283 319 ft 19 kts 244°
2026-05-03 22:11 40.90131 29.31112 321 ft 23 kts 244°
2026-05-03 22:11 40.90070 29.30902 321 ft 27 kts 263°
2026-05-03 22:11 40.90002 29.30740 321 ft 21 kts 231°
2026-05-03 22:11 40.89930 29.30553 321 ft 25 kts 245°
2026-05-03 22:12 40.89849 29.30330 319 ft 29 kts 245°
2026-05-03 22:12 40.89760 29.30070 321 ft 33 kts 246°
2026-05-03 22:12 40.89661 29.29799 320 ft 29 kts 244°
2026-05-03 22:12 40.89576 29.29567 321 ft 27 kts 245°
2026-05-03 22:13 40.89496 29.29347 321 ft 26 kts 240°
2026-05-03 22:13 40.89404 29.29252 320 ft 11 kts 183°
2026-05-03 22:13 40.89361 29.29272 320 ft 0 kts 152°
2026-05-03 22:14 40.89345 29.29284 320 ft 6 kts 152°
2026-05-03 22:14 40.89293 29.29320 322 ft 10 kts 151°
2026-05-03 22:15 40.89291 29.29393 322 ft 0 kts 64°
2026-05-03 22:15 40.89291 29.29394 322 ft 0 kts 64°
2026-05-03 22:15 40.89309 29.29441 321 ft 29 kts 64°
2026-05-03 22:16 40.89507 29.29972 322 ft 96 kts 64°
2026-05-03 22:16 40.89879 29.30979 319 ft 145 kts 64°
2026-05-03 22:16 40.90344 29.32226 803 ft 149 kts 60°
2026-05-03 22:16 40.90798 29.33462 1428 ft 149 kts 58°
2026-05-03 22:17 40.91249 29.34689 2045 ft 152 kts 57°
2026-05-03 22:17 40.91750 29.36033 2200 ft 174 kts 58°
2026-05-03 22:17 40.92321 29.37564 2339 ft 197 kts 59°
2026-05-03 22:17 40.92963 29.39295 2577 ft 221 kts 60°
2026-05-03 22:18 40.93527 29.41201 3394 ft 228 kts 78°
2026-05-03 22:18 40.93221 29.43325 4145 ft 253 kts 114°
2026-05-03 22:18 40.91915 29.45012 4845 ft 275 kts 144°
2026-05-03 22:18 40.90153 29.46095 5649 ft 283 kts 154°
2026-05-03 22:19 40.88284 29.46954 6455 ft 286 kts 156°
2026-05-03 22:19 40.86521 29.48096 7162 ft 281 kts 136°
2026-05-03 22:19 40.85240 29.49977 7885 ft 273 kts 114°
2026-05-03 22:19 40.84564 29.52278 8622 ft 269 kts 102°
2026-05-03 22:20 40.84029 29.54659 9380 ft 272 kts 102°
2026-05-03 22:20 40.83489 29.57069 10096 ft 276 kts 102°
2026-05-03 22:20 40.82926 29.59574 10376 ft 296 kts 103°
2026-05-03 22:20 40.82316 29.62279 10511 ft 319 kts 103°
2026-05-03 22:21 40.81659 29.65170 10729 ft 337 kts 104°
2026-05-03 22:21 40.80972 29.68164 11309 ft 343 kts 104°
2026-05-03 22:21 40.80275 29.71181 11992 ft 346 kts 104°
2026-05-03 22:21 40.79570 29.74233 12678 ft 349 kts 104°
2026-05-03 22:22 40.78863 29.77278 13377 ft 352 kts 104°
2026-05-03 22:22 40.78135 29.80417 14017 ft 356 kts 104°
2026-05-03 22:22 40.77410 29.83557 14604 ft 359 kts 104°
2026-05-03 22:22 40.76682 29.86713 15201 ft 361 kts 105°
2026-05-03 22:23 40.75956 29.89852 15787 ft 364 kts 105°
2026-05-03 22:23 40.75214 29.93061 16366 ft 367 kts 105°
2026-05-03 22:23 40.74466 29.96299 16915 ft 371 kts 106°
2026-05-03 22:23 40.73708 29.99569 17454 ft 375 kts 106°
2026-05-03 22:24 40.72935 30.02912 18000 ft 378 kts 106°
2026-05-03 22:24 40.72171 30.06199 18494 ft 382 kts 107°
2026-05-03 22:24 40.71389 30.09556 19003 ft 384 kts 107°
2026-05-03 22:24 40.70592 30.12976 19506 ft 386 kts 107°
2026-05-03 22:25 40.69811 30.16316 20013 ft 388 kts 108°
2026-05-03 22:25 40.69011 30.19720 20498 ft 390 kts 108°
2026-05-03 22:25 40.68207 30.23134 20948 ft 393 kts 108°
2026-05-03 22:25 40.67394 30.26586 21403 ft 396 kts 108°
2026-05-03 22:26 40.66645 30.30091 21840 ft 400 kts 102°
2026-05-03 22:26 40.66264 30.33739 22260 ft 404 kts 97°
2026-05-03 22:26 40.65966 30.37427 22695 ft 407 kts 97°
2026-05-03 22:26 40.65662 30.41141 23140 ft 410 kts 98°
2026-05-03 22:27 40.65353 30.44879 23577 ft 412 kts 98°
2026-05-03 22:27 40.65038 30.48638 23936 ft 415 kts 98°
2026-05-03 22:27 40.64718 30.52429 24280 ft 418 kts 98°
2026-05-03 22:27 40.64399 30.56238 24624 ft 420 kts 98°
2026-05-03 22:28 40.64075 30.60076 24978 ft 423 kts 98°
2026-05-03 22:28 40.63748 30.63930 25329 ft 425 kts 99°
2026-05-03 22:28 40.63419 30.67813 25673 ft 428 kts 99°
2026-05-03 22:28 40.62994 30.71695 25994 ft 429 kts 105°
2026-05-03 22:29 40.62230 30.75490 26350 ft 430 kts 108°
2026-05-03 22:29 40.61424 30.79290 26680 ft 432 kts 108°
2026-05-03 22:29 40.60614 30.83103 27002 ft 434 kts 109°
2026-05-03 22:29 40.59803 30.86941 27317 ft 437 kts 109°
2026-05-03 22:30 40.58989 30.90804 27633 ft 439 kts 109°
2026-05-03 22:30 40.58167 30.94681 27972 ft 441 kts 109°
2026-05-03 22:30 40.57336 30.98580 28275 ft 444 kts 109°
2026-05-03 22:30 40.56499 31.02494 28570 ft 446 kts 109°
2026-05-03 22:31 40.55658 31.06430 28847 ft 448 kts 110°
2026-05-03 22:31 40.54815 31.10377 29222 ft 448 kts 110°
2026-05-03 22:31 40.53970 31.14319 29618 ft 447 kts 110°
2026-05-03 22:31 40.53124 31.18255 29975 ft 447 kts 110°
2026-05-03 22:32 40.52279 31.22188 30263 ft 447 kts 110°
2026-05-03 22:32 40.51444 31.26068 30530 ft 447 kts 110°
2026-05-03 22:32 40.50596 31.29991 30803 ft 447 kts 111°
2026-05-03 22:32 40.49732 31.33977 31047 ft 448 kts 111°
2026-05-03 22:33 40.48888 31.37866 31293 ft 448 kts 111°
2026-05-03 22:33 40.48030 31.41810 31592 ft 448 kts 111°
2026-05-03 22:33 40.47172 31.45750 31880 ft 449 kts 111°
2026-05-03 22:33 40.46313 31.49687 32144 ft 449 kts 111°
2026-05-03 22:34 40.45449 31.53630 32432 ft 449 kts 111°
2026-05-03 22:34 40.44583 31.57571 32724 ft 449 kts 111°
2026-05-03 22:34 40.43721 31.61505 32999 ft 449 kts 111°
2026-05-03 22:34 40.42854 31.65452 33249 ft 450 kts 112°
2026-05-03 22:35 40.41990 31.69389 33517 ft 450 kts 112°
2026-05-03 22:35 40.41124 31.73337 33783 ft 450 kts 112°
2026-05-03 22:35 40.40256 31.77292 33997 ft 450 kts 112°
2026-05-03 22:35 40.39388 31.81238 34172 ft 451 kts 112°
2026-05-03 22:36 40.38511 31.85202 34363 ft 452 kts 112°
2026-05-03 22:36 40.37633 31.89158 34554 ft 453 kts 112°
2026-05-03 22:36 40.36748 31.93131 34714 ft 454 kts 112°
2026-05-03 22:37 40.34968 32.01079 34784 ft 454 kts 112°
2026-05-03 22:37 40.33195 32.08948 34777 ft 454 kts 112°
2026-05-03 22:38 40.29280 32.28805 34761 ft 456 kts 110°
2026-05-03 22:38 40.22845 32.60959 34751 ft 460 kts 111°
2026-05-03 22:39 40.20222 32.73987 34740 ft 458 kts 111°
2026-05-03 22:39 40.16006 32.95802 34661 ft 470 kts 101°
2026-05-03 22:39 40.16715 33.04705 34743 ft 488 kts 77°
2026-05-03 22:40 40.19690 33.12779 34757 ft 496 kts 64°
2026-05-03 22:40 40.26482 33.28513 34742 ft 496 kts 64°
2026-05-03 22:41 40.37075 33.53158 34750 ft 496 kts 64°
2026-05-03 22:41 40.48179 33.85657 34735 ft 490 kts 77°
2026-05-03 22:42 40.58154 34.19472 34751 ft 494 kts 72°
2026-05-03 22:42 40.68306 34.52928 34803 ft 492 kts 73°
2026-05-03 22:43 40.78392 34.86533 34767 ft 491 kts 73°
2026-05-03 22:43 40.88215 35.20231 34753 ft 491 kts 74°
2026-05-03 22:44 40.97875 35.53707 34770 ft 490 kts 74°
2026-05-03 22:44 41.07653 35.87432 34787 ft 491 kts 73°
2026-05-03 22:45 41.17290 36.21508 34794 ft 494 kts 73°
2026-05-03 22:45 41.26042 36.55892 34768 ft 482 kts 91°
2026-05-03 22:45 41.25526 36.68295 34733 ft 477 kts 102°
2026-05-03 22:46 41.25201 36.72727 34808 ft 478 kts 102°
2026-05-03 22:46 41.24579 36.81461 34822 ft 478 kts 102°
2026-05-03 22:47 41.23937 36.90235 34824 ft 477 kts 102°
2026-05-03 22:47 41.23276 36.99001 34820 ft 477 kts 102°
2026-05-03 22:48 41.22603 37.07769 34819 ft 477 kts 102°
2026-05-03 22:48 41.21913 37.16522 34813 ft 477 kts 102°
2026-05-03 22:49 41.21214 37.25290 34813 ft 477 kts 102°
2026-05-03 22:49 41.20570 37.34085 34339 ft 481 kts 102°
2026-05-03 22:49 41.20247 37.38560 33182 ft 493 kts 102°
2026-05-03 22:50 41.19912 37.43128 32135 ft 499 kts 101°
2026-05-03 22:50 41.19571 37.47729 31196 ft 503 kts 101°
2026-05-03 22:50 41.19224 37.52377 30326 ft 505 kts 101°
2026-05-03 22:50 41.18887 37.57005 29554 ft 505 kts 100°
2026-05-03 22:51 41.18604 37.61650 28735 ft 504 kts 99°
2026-05-03 22:51 41.18324 37.66276 28091 ft 499 kts 100°
2026-05-03 22:51 41.18004 37.70838 27384 ft 496 kts 101°
2026-05-03 22:51 41.17637 37.75361 26897 ft 488 kts 102°
2026-05-03 22:52 41.17245 37.79807 26339 ft 483 kts 102°
2026-05-03 22:52 41.16840 37.84211 25721 ft 479 kts 102°
2026-05-03 22:52 41.16439 37.88573 25131 ft 475 kts 102°
2026-05-03 22:52 41.16056 37.92924 24559 ft 472 kts 102°
2026-05-03 22:53 41.15704 37.97232 24005 ft 469 kts 102°
2026-05-03 22:53 41.15370 38.01521 23460 ft 465 kts 101°
2026-05-03 22:53 41.15045 38.05773 22831 ft 461 kts 101°
2026-05-03 22:53 41.14830 38.08555 22437 ft 458 kts 101°
2026-05-03 22:54 41.14502 38.12747 21820 ft 454 kts 102°
2026-05-03 22:54 41.14168 38.16882 21340 ft 447 kts 102°
2026-05-03 22:54 41.13833 38.20962 20809 ft 442 kts 102°
2026-05-03 22:54 41.13500 38.24975 20356 ft 435 kts 102°
2026-05-03 22:55 41.13172 38.28935 19884 ft 429 kts 102°
2026-05-03 22:55 41.12852 38.32837 19419 ft 423 kts 102°
2026-05-03 22:55 41.12536 38.36704 18942 ft 419 kts 102°
2026-05-03 22:55 41.12224 38.40511 18483 ft 414 kts 102°
2026-05-03 22:56 41.11909 38.44308 17979 ft 411 kts 102°
2026-05-03 22:56 41.11595 38.48054 17475 ft 406 kts 102°
2026-05-03 22:56 41.11286 38.51747 16995 ft 402 kts 102°
2026-05-03 22:56 41.10977 38.55410 16523 ft 398 kts 102°
2026-05-03 22:57 41.10668 38.59037 16051 ft 394 kts 102°
2026-05-03 22:57 41.10360 38.62623 15581 ft 390 kts 102°
2026-05-03 22:57 41.10051 38.66190 15108 ft 387 kts 102°
2026-05-03 22:57 41.09743 38.69719 14646 ft 384 kts 102°
2026-05-03 22:58 41.09433 38.73230 14185 ft 382 kts 102°
2026-05-03 22:58 41.09122 38.76704 13722 ft 380 kts 102°
2026-05-03 22:58 41.08809 38.80171 13209 ft 377 kts 102°
2026-05-03 22:58 41.08497 38.83607 12736 ft 374 kts 102°
2026-05-03 22:59 41.08192 38.86958 12433 ft 365 kts 102°
2026-05-03 22:59 41.07886 38.90315 12028 ft 360 kts 102°
2026-05-03 22:59 41.07584 38.93601 11564 ft 358 kts 102°
2026-05-03 22:59 41.07287 38.96821 11101 ft 356 kts 102°
2026-05-03 23:00 41.06984 39.00113 10632 ft 354 kts 102°
2026-05-03 23:00 41.06693 39.03257 10462 ft 343 kts 102°
2026-05-03 23:00 41.06410 39.06336 10332 ft 331 kts 102°
2026-05-03 23:00 41.06140 39.09312 10211 ft 319 kts 102°
2026-05-03 23:01 41.05932 39.12189 10080 ft 312 kts 95°
2026-05-03 23:01 41.06186 39.15040 9796 ft 314 kts 79°
2026-05-03 23:01 41.06934 39.17762 9430 ft 314 kts 72°
2026-05-03 23:01 41.07745 39.20447 8990 ft 313 kts 72°
2026-05-03 23:02 41.08542 39.23106 8695 ft 308 kts 72°
2026-05-03 23:02 41.09327 39.25737 8339 ft 305 kts 72°
2026-05-03 23:02 41.10101 39.28341 7861 ft 306 kts 71°
2026-05-03 23:02 41.10898 39.31035 7020 ft 320 kts 71°
2026-05-03 23:03 41.11716 39.33832 6263 ft 329 kts 73°
2026-05-03 23:03 41.12070 39.36758 6000 ft 316 kts 94°
2026-05-03 23:03 41.11646 39.39552 5660 ft 306 kts 112°
2026-05-03 23:03 41.10864 39.42150 5314 ft 300 kts 113°
2026-05-03 23:04 41.10088 39.44687 5017 ft 294 kts 112°
2026-05-03 23:04 41.09327 39.47169 4712 ft 287 kts 112°
2026-05-03 23:04 41.08593 39.49561 4402 ft 280 kts 112°
2026-05-03 23:04 41.07869 39.51924 4106 ft 266 kts 112°
2026-05-03 23:05 41.07189 39.54141 3825 ft 253 kts 112°
2026-05-03 23:05 41.06541 39.56253 3573 ft 241 kts 112°
2026-05-03 23:05 41.05920 39.58270 3311 ft 233 kts 112°
2026-05-03 23:05 41.05304 39.60212 2993 ft 231 kts 112°
2026-05-03 23:06 41.04705 39.62135 2629 ft 222 kts 112°
2026-05-03 23:06 41.04130 39.63999 2305 ft 215 kts 112°
2026-05-03 23:06 41.03573 39.65807 1981 ft 210 kts 112°
2026-05-03 23:06 41.03025 39.67586 1682 ft 207 kts 112°
2026-05-03 23:07 41.02493 39.69310 1446 ft 198 kts 112°
2026-05-03 23:07 41.01988 39.70944 1221 ft 185 kts 112°
2026-05-03 23:07 41.01532 39.72422 1042 ft 163 kts 111°
2026-05-03 23:07 41.01117 39.73764 805 ft 155 kts 112°
2026-05-03 23:08 41.00713 39.75069 562 ft 152 kts 112°
2026-05-03 23:08 41.00312 39.76366 352 ft 153 kts 112°
2026-05-03 23:08 40.99908 39.77667 139 ft 153 kts 112°
2026-05-03 23:08 40.99569 39.78768 108 ft 81 kts 113°
2026-05-03 23:09 40.99449 39.79163 112 ft 34 kts 110°
2026-05-03 23:09 40.99423 39.79241 114 ft 0 kts 122°
2026-05-03 23:09 40.99415 39.79249 114 ft 5 kts 144°
2026-05-03 23:09 40.99355 39.79190 111 ft 19 kts 245°
2026-05-03 23:10 40.99343 39.79020 108 ft 17 kts 292°
2026-05-03 23:10 40.99384 39.78890 107 ft 13 kts 292°
2026-05-03 23:10 40.99410 39.78807 109 ft 8 kts 292°
2026-05-03 23:10 40.99434 39.78732 108 ft 10 kts 292°
2026-05-03 23:11 40.99473 39.78612 109 ft 18 kts 293°
2026-05-03 23:11 40.99530 39.78428 112 ft 24 kts 292°
2026-05-03 23:11 40.99596 39.78215 112 ft 17 kts 292°
2026-05-03 23:11 40.99623 39.78128 114 ft 7 kts 292°
2026-05-03 23:12 40.99609 39.78108 114 ft 4 kts 201°
2026-05-03 23:12 40.99577 39.78092 113 ft 4 kts 202°
2026-05-03 23:12 40.99560 39.78083 113 ft 2 kts 201°
2026-05-03 23:12 40.99559 39.78082 113 ft 0 kts 201°